General R Fierro Villalobos International Airport
MMCU : rendu visible

Aérodrome :











RETROUVEZ-NOUS SUR...

 
LOGIN :

S'inscrire | Disclaimer

   EN    FR    IT 

 









Légende :    VFR   VFR Marginal   IFR   IFR Intensif   IFR Très Intensif
Visi : 
Plafond : 
>= 8 km
>= 3000ft
5 à 8 km
1000 à 3000 ft
1500m à 5 km
500 à 1000 ft
800 à 1500m
200 à 500 ft
< 800m
< 200 ft
Symboles :   Orages  Brouillard  Fortes neiges  Fortes précipitations  Vent > 20 kt






- Altitude de l'aérodrome : 4462 ft
- Code IATA : CUU


MMCU - General R Fierro Villalobos International

DERNIER METAR :
  • 070244Z 01016KT 10SM FEW030TCU SCT070 30/09 A2989 RMK SLP986 52009 969 8/260 ISOL CI

METARs EXPIRÉS :
  • 070146Z 00000KT 10SM FEW030TCU SCT070 34/06 A2987 RMK 8/260 ISOL CI
  • 070043Z 17007KT 10SM SCT030TCU 36/06 A2986 RMK 8/200 ISOL CI

TAF TAF MMCU
Valide du 06 à 18h jusqu'au 07 à 18h UTC


061717Z 0618/0718 13006KT P6SM SKC
BECMG 0620/0621 13012KT SCT030
FM070200 00000KT P6SM SKC
BECMG 0715/0716 13006KT
FIR MMFR / Amérique du Nord



MET'MAP, la Météo Aéronautique d'un coup d'oeil ! - Copyright ORBIFLY Décembre 2007 - Disclaimer

ORBIFLY MET'MAP TEAM :

Programmation & Développement : Alexandra Zaïnal
Sur une idée originale de : Baudouin d'Aumeries
Assistance à la programmation : Marc-Olivier Méhu
Soutien technique & logistique : Manuel Goepfert

Contact : metmap@orbifly.com




SOURCES & CREDITS :

   NOAA       Earth
Advisory